Time,TemperatureF,DewpointF,PressureIn,WindDirection,WindDirectionDegrees,WindSpeedMPH,WindSpeedGustMPH,Humidity,HourlyPrecipIn,Conditions,Clouds,dailyrainin,SoftwareType,DateUTC
2013-11-18 00:11:00,48.3,30.0,30.02,NW,306,5.0,7.0,49,0.00,,,0.00,weatherlink.com 1.10,2013-11-18 06:11:00,
2013-11-18 00:26:00,47.6,31.0,30.02,NW,307,4.0,7.0,52,0.00,,,0.00,weatherlink.com 1.10,2013-11-18 06:26:00,
2013-11-18 00:41:00,47.0,30.0,30.02,WNW,293,4.0,6.0,53,0.00,,,0.00,weatherlink.com 1.10,2013-11-18 06:41:00,
2013-11-18 00:56:00,46.4,30.0,30.03,NW,308,3.0,6.0,54,0.00,,,0.00,weatherlink.com 1.10,2013-11-18 06:56:00,
2013-11-18 01:11:00,45.8,31.0,30.03,WNW,293,2.0,5.0,57,0.00,,,0.00,weatherlink.com 1.10,2013-11-18 07:11:00,
2013-11-18 01:26:00,45.1,32.0,30.02,NW,310,2.0,6.0,60,0.00,,,0.00,weatherlink.com 1.10,2013-11-18 07:26:00,
2013-11-18 01:41:00,44.4,32.0,30.02,NNW,340,2.0,4.0,62,0.00,,,0.00,weatherlink.com 1.10,2013-11-18 07:41:00,
2013-11-18 01:56:00,43.6,32.0,30.03,West,277,1.0,3.0,64,0.00,,,0.00,weatherlink.com 1.10,2013-11-18 07:56:00,
2013-11-18 02:11:00,42.9,32.0,30.04,West,273,1.0,1.0,65,0.00,,,0.00,weatherlink.com 1.10,2013-11-18 08:11:00,
2013-11-18 02:26:00,42.8,32.0,30.04,WNW,293,0.0,1.0,65,0.00,,,0.00,weatherlink.com 1.10,2013-11-18 08:26:00,
2013-11-18 02:41:00,42.7,32.0,30.04,WNW,293,1.0,1.0,65,0.00,,,0.00,weatherlink.com 1.10,2013-11-18 08:41:00,
2013-11-18 02:56:00,41.7,31.0,30.04,WNW,293,0.0,1.0,66,0.00,,,0.00,weatherlink.com 1.10,2013-11-18 08:56:00,
2013-11-18 03:11:00,40.8,31.0,30.04,North,11,0.0,1.0,69,0.00,,,0.00,weatherlink.com 1.10,2013-11-18 09:11:00,
2013-11-18 03:26:00,41.0,32.0,30.04,NNE,22,2.0,2.0,69,0.00,,,0.00,weatherlink.com 1.10,2013-11-18 09:26:00,
2013-11-18 03:41:00,41.6,32.0,30.02,NE,37,5.0,5.0,69,0.00,,,0.00,weatherlink.com 1.10,2013-11-18 09:41:00,
2013-11-18 03:56:00,41.4,33.0,30.02,NE,37,2.0,3.0,71,0.00,,,0.00,weatherlink.com 1.10,2013-11-18 09:56:00,
2013-11-18 04:11:00,40.2,32.0,30.06,WSW,253,2.0,2.0,72,0.00,,,0.00,weatherlink.com 1.10,2013-11-18 10:11:00,
2013-11-18 04:27:00,39.9,32.0,30.09,West,263,2.0,3.0,74,0.00,,,0.00,weatherlink.com 1.10,2013-11-18 10:27:00,
2013-11-18 04:42:00,39.4,32.0,30.10,NW,305,2.0,3.0,75,0.00,,,0.00,weatherlink.com 1.10,2013-11-18 10:42:00,
2013-11-18 04:57:00,39.0,32.0,30.12,West,273,1.0,4.0,77,0.00,,,0.00,weatherlink.com 1.10,2013-11-18 10:57:00,
2013-11-18 05:12:00,38.6,32.0,30.12,SW,226,1.0,3.0,78,0.00,,,0.00,weatherlink.com 1.10,2013-11-18 11:12:00,
2013-11-18 05:27:00,38.5,33.0,30.12,West,270,1.0,2.0,79,0.00,,,0.00,weatherlink.com 1.10,2013-11-18 11:27:00,
2013-11-18 05:42:00,38.1,32.0,30.13,WNW,301,1.0,1.0,80,0.00,,,0.00,weatherlink.com 1.10,2013-11-18 11:42:00,
2013-11-18 05:57:00,37.8,32.0,30.14,West,261,1.0,2.0,81,0.00,,,0.00,weatherlink.com 1.10,2013-11-18 11:57:00,
2013-11-18 06:12:00,37.3,32.0,30.15,WNW,285,1.0,4.0,82,0.00,,,0.00,weatherlink.com 1.10,2013-11-18 12:12:00,
2013-11-18 06:27:00,37.2,33.0,30.16,WNW,284,1.0,3.0,83,0.00,,,0.00,weatherlink.com 1.10,2013-11-18 12:27:00,
2013-11-18 06:42:00,36.8,32.0,30.16,NW,310,0.0,4.0,84,0.00,,,0.00,weatherlink.com 1.10,2013-11-18 12:42:00,
2013-11-18 06:57:00,36.6,33.0,30.17,NW,304,1.0,2.0,85,0.00,,,0.00,weatherlink.com 1.10,2013-11-18 12:57:00,
2013-11-18 07:12:00,36.6,33.0,30.18,WNW,303,0.0,1.0,85,0.00,,,0.00,weatherlink.com 1.10,2013-11-18 13:12:00,
2013-11-18 07:27:00,36.8,33.0,30.19,NW,304,0.0,0.0,85,0.00,,,0.00,weatherlink.com 1.10,2013-11-18 13:27:00,
2013-11-18 07:42:00,38.0,34.0,30.20,WNW,290,1.0,2.0,84,0.00,,,0.00,weatherlink.com 1.10,2013-11-18 13:42:00,
2013-11-18 07:57:00,39.0,34.0,30.20,NW,310,1.0,1.0,83,0.00,,,0.00,weatherlink.com 1.10,2013-11-18 13:57:00,
2013-11-18 08:12:00,40.5,35.0,30.21,WNW,301,2.0,3.0,82,0.00,,,0.00,weatherlink.com 1.10,2013-11-18 14:12:00,
2013-11-18 08:27:00,41.9,37.0,30.22,NW,310,1.0,5.0,81,0.00,,,0.00,weatherlink.com 1.10,2013-11-18 14:27:00,
2013-11-18 08:42:00,43.3,37.0,30.23,NW,311,4.0,4.0,79,0.00,,,0.00,weatherlink.com 1.10,2013-11-18 14:42:00,
2013-11-18 08:57:00,44.1,37.0,30.23,NW,322,3.0,5.0,77,0.00,,,0.00,weatherlink.com 1.10,2013-11-18 14:57:00,
2013-11-18 09:12:00,44.9,38.0,30.23,NW,326,2.0,4.0,76,0.00,,,0.00,weatherlink.com 1.10,2013-11-18 15:12:00,
2013-11-18 09:27:00,46.1,38.0,30.23,NE,37,2.0,3.0,74,0.00,,,0.00,weatherlink.com 1.10,2013-11-18 15:27:00,
2013-11-18 09:42:00,46.8,38.0,30.23,NNE,32,1.0,4.0,72,0.00,,,0.00,weatherlink.com 1.10,2013-11-18 15:42:00,
2013-11-18 09:57:00,47.9,39.0,30.23,NNE,27,1.0,4.0,71,0.00,,,0.00,weatherlink.com 1.10,2013-11-18 15:57:00,
2013-11-18 10:12:00,49.3,39.0,30.23,NNE,18,1.0,4.0,67,0.00,,,0.00,weatherlink.com 1.10,2013-11-18 16:12:00,
2013-11-18 10:28:00,50.3,38.0,30.23,East,90,2.0,5.0,62,0.00,,,0.00,weatherlink.com 1.10,2013-11-18 16:28:00,
2013-11-18 10:42:00,51.1,38.0,30.24,NW,311,3.0,5.0,61,0.00,,,0.00,weatherlink.com 1.10,2013-11-18 16:42:00,
2013-11-18 10:57:00,52.0,37.0,30.24,NW,324,1.0,5.0,58,0.00,,,0.00,weatherlink.com 1.10,2013-11-18 16:57:00,
2013-11-18 11:12:00,53.2,37.0,30.24,North,351,2.0,5.0,55,0.00,,,0.00,weatherlink.com 1.10,2013-11-18 17:12:00,
2013-11-18 11:28:00,53.6,36.0,30.24,NW,319,3.0,8.0,51,0.00,,,0.00,weatherlink.com 1.10,2013-11-18 17:28:00,
2013-11-18 11:43:00,54.3,35.0,30.24,NNW,333,3.0,6.0,48,0.00,,,0.00,weatherlink.com 1.10,2013-11-18 17:43:00,
2013-11-18 11:58:00,54.4,32.0,30.24,NW,311,2.0,7.0,43,0.00,,,0.00,weatherlink.com 1.10,2013-11-18 17:58:00,
2013-11-18 12:13:00,55.3,32.0,30.24,NNE,12,2.0,6.0,41,0.00,,,0.00,weatherlink.com 1.10,2013-11-18 18:13:00,
2013-11-18 12:28:00,55.6,32.0,30.24,NW,307,3.0,8.0,41,0.00,,,0.00,weatherlink.com 1.10,2013-11-18 18:28:00,
2013-11-18 12:43:00,55.7,32.0,30.24,NW,316,3.0,7.0,40,0.00,,,0.00,weatherlink.com 1.10,2013-11-18 18:43:00,
2013-11-18 12:58:00,55.8,32.0,30.24,NNW,333,3.0,6.0,40,0.00,,,0.00,weatherlink.com 1.10,2013-11-18 18:58:00,
2013-11-18 13:13:00,55.8,32.0,30.24,North,4,2.0,5.0,40,0.00,,,0.00,weatherlink.com 1.10,2013-11-18 19:13:00,
2013-11-18 13:28:00,56.2,32.0,30.24,NW,305,3.0,8.0,40,0.00,,,0.00,weatherlink.com 1.10,2013-11-18 19:28:00,
2013-11-18 13:43:00,56.7,31.0,30.23,NNE,29,4.0,5.0,38,0.00,,,0.00,weatherlink.com 1.10,2013-11-18 19:43:00,
2013-11-18 13:58:00,56.5,30.0,30.23,ENE,67,2.0,5.0,36,0.00,,,0.00,weatherlink.com 1.10,2013-11-18 19:58:00,
2013-11-18 14:13:00,57.1,30.0,30.23,WNW,302,2.0,5.0,36,0.00,,,0.00,weatherlink.com 1.10,2013-11-18 20:13:00,
2013-11-18 14:28:00,56.6,30.0,30.23,NW,315,2.0,6.0,36,0.00,,,0.00,weatherlink.com 1.10,2013-11-18 20:28:00,
2013-11-18 14:43:00,56.6,30.0,30.24,NNE,29,2.0,5.0,36,0.00,,,0.00,weatherlink.com 1.10,2013-11-18 20:43:00,
2013-11-18 14:58:00,57.2,30.0,30.24,NE,36,2.0,3.0,36,0.00,,,0.00,weatherlink.com 1.10,2013-11-18 20:58:00,
2013-11-18 15:13:00,57.1,31.0,30.24,NE,55,2.0,5.0,37,0.00,,,0.00,weatherlink.com 1.10,2013-11-18 21:13:00,
2013-11-18 15:43:00,56.3,28.0,30.23,NE,41,0.0,3.0,34,0.00,,,0.00,weatherlink.com 1.10,2013-11-18 21:43:00,
2013-11-18 15:58:00,56.4,27.0,30.23,NE,47,1.0,2.0,32,0.00,,,0.00,weatherlink.com 1.10,2013-11-18 21:58:00,
2013-11-18 16:13:00,55.1,26.0,30.24,NE,39,3.0,4.0,33,0.00,,,0.00,weatherlink.com 1.10,2013-11-18 22:13:00,
2013-11-18 16:28:00,54.1,27.0,30.23,NNE,20,2.0,3.0,36,0.00,,,0.00,weatherlink.com 1.10,2013-11-18 22:28:00,
2013-11-18 16:43:00,52.8,26.0,30.23,NNE,16,2.0,3.0,36,0.00,,,0.00,weatherlink.com 1.10,2013-11-18 22:43:00,
2013-11-18 16:58:00,51.6,27.0,30.24,NE,37,1.0,2.0,38,0.00,,,0.00,weatherlink.com 1.10,2013-11-18 22:58:00,
2013-11-18 17:13:00,50.7,26.0,30.24,NNE,28,1.0,2.0,39,0.00,,,0.00,weatherlink.com 1.10,2013-11-18 23:13:00,
2013-11-18 17:28:00,50.0,26.0,30.24,NNE,27,1.0,2.0,40,0.00,,,0.00,weatherlink.com 1.10,2013-11-18 23:28:00,
2013-11-18 17:43:00,49.6,26.0,30.24,NNE,27,1.0,1.0,40,0.00,,,0.00,weatherlink.com 1.10,2013-11-18 23:43:00,
2013-11-18 17:58:00,49.0,27.0,30.25,NNE,27,0.0,1.0,42,0.00,,,0.00,weatherlink.com 1.10,2013-11-18 23:58:00,
2013-11-18 18:13:00,47.1,26.0,30.25,NNE,27,0.0,0.0,44,0.00,,,0.00,weatherlink.com 1.10,2013-11-19 00:13:00,
2013-11-18 18:28:00,46.1,26.0,30.26,NNE,26,0.0,0.0,45,0.00,,,0.00,weatherlink.com 1.10,2013-11-19 00:28:00,
2013-11-18 18:43:00,47.3,26.0,30.26,NNE,26,0.0,1.0,44,0.00,,,0.00,weatherlink.com 1.10,2013-11-19 00:43:00,
2013-11-18 18:58:00,46.9,26.0,30.26,NNE,26,0.0,0.0,45,0.00,,,0.00,weatherlink.com 1.10,2013-11-19 00:58:00,
2013-11-18 19:13:00,46.1,26.0,30.27,NNE,25,0.0,1.0,46,0.00,,,0.00,weatherlink.com 1.10,2013-11-19 01:13:00,
2013-11-18 19:28:00,46.2,26.0,30.27,NNE,26,1.0,1.0,46,0.00,,,0.00,weatherlink.com 1.10,2013-11-19 01:28:00,
2013-11-18 19:43:00,46.8,26.0,30.28,NE,37,0.0,1.0,45,0.00,,,0.00,weatherlink.com 1.10,2013-11-19 01:43:00,
2013-11-18 19:58:00,46.9,26.0,30.27,NE,37,1.0,1.0,45,0.00,,,0.00,weatherlink.com 1.10,2013-11-19 01:58:00,
2013-11-18 20:13:00,47.4,26.0,30.28,NE,37,1.0,1.0,44,0.00,,,0.00,weatherlink.com 1.10,2013-11-19 02:13:00,
2013-11-18 20:28:00,47.4,26.0,30.28,NE,37,0.0,1.0,44,0.00,,,0.00,weatherlink.com 1.10,2013-11-19 02:28:00,
2013-11-18 20:43:00,47.4,26.0,30.28,NE,42,2.0,2.0,44,0.00,,,0.00,weatherlink.com 1.10,2013-11-19 02:43:00,
2013-11-18 20:58:00,46.5,27.0,30.28,ENE,67,2.0,2.0,46,0.00,,,0.00,weatherlink.com 1.10,2013-11-19 02:58:00,
2013-11-18 21:13:00,45.3,27.0,30.28,ENE,63,1.0,2.0,49,0.00,,,0.00,weatherlink.com 1.10,2013-11-19 03:13:00,
2013-11-18 21:28:00,44.6,27.0,30.29,ENE,65,2.0,2.0,50,0.00,,,0.00,weatherlink.com 1.10,2013-11-19 03:28:00,
2013-11-18 21:43:00,44.0,27.0,30.29,ENE,61,2.0,2.0,52,0.00,,,0.00,weatherlink.com 1.10,2013-11-19 03:43:00,
2013-11-18 21:58:00,43.9,27.0,30.29,ENE,77,2.0,2.0,51,0.00,,,0.00,weatherlink.com 1.10,2013-11-19 03:58:00,
2013-11-18 22:13:00,44.2,26.0,30.29,ENE,65,2.0,2.0,50,0.00,,,0.00,weatherlink.com 1.10,2013-11-19 04:13:00,
2013-11-18 22:28:00,44.4,26.0,30.29,ENE,77,2.0,3.0,49,0.00,,,0.00,weatherlink.com 1.10,2013-11-19 04:28:00,
2013-11-18 22:43:00,44.4,26.0,30.29,ESE,102,1.0,2.0,48,0.00,,,0.00,weatherlink.com 1.10,2013-11-19 04:43:00,
2013-11-18 22:58:00,45.1,25.0,30.29,East,99,2.0,2.0,46,0.00,,,0.00,weatherlink.com 1.10,2013-11-19 04:58:00,
2013-11-18 23:13:00,44.9,25.0,30.28,East,96,2.0,2.0,46,0.00,,,0.00,weatherlink.com 1.10,2013-11-19 05:13:00,
2013-11-18 23:28:00,44.9,25.0,30.28,East,92,2.0,3.0,46,0.00,,,0.00,weatherlink.com 1.10,2013-11-19 05:28:00,
2013-11-18 23:43:00,44.6,25.0,30.28,ESE,105,2.0,3.0,47,0.00,,,0.00,weatherlink.com 1.10,2013-11-19 05:43:00,
2013-11-18 23:59:00,44.6,25.0,30.28,ESE,106,2.0,3.0,47,0.00,,,0.00,weatherlink.com 1.10,2013-11-19 05:59:00,